EWS-G2 (GOES 15)

Last updated on Thu Nov 21 2024 00:02:19 GMT+0000 (Coordinated Universal Time)

1 36411U 10008A 24325.20604936 .00000036 00000+0 00000+0 0 9997 2 36411 0.1924 273.0929 0007352 331.9834 310.4995 1.00276734 53888
UTC large
Height (km)
Speed (km/s)
/
Latitude / Longitude
Inclination (degrees)
Orbital Period (minutes)
Azimuth
Elevation
Range (km)
Doppler Factor

Next 0 passes for location: London (51.5072 / 0.1276)

Sorry there are no passes over London.